Simultaneous Nadir Overpasses (SNOs) Predictions

Prediction of SNOs between GOES-15 and METOP-C Satellite Orbit:

Table of predicted SNOs for the next 14.0 days since TLE Epoch: 1/15/2023
Index Date Time (GOES-15) GOES-15 Lat,Lon METOP-C Lat,Lon Distance(km) Time Diff (sec)
1 01/16/2023 18:04:08 -0.03,-128.09 -0.03,-128.07 2.10 80
2 01/19/2023 05:59:48 0.02,-128.17 0.11,-127.66 58.05 80
3 01/20/2023 18:18:37 -0.02,-128.13 0.92,-132.21 465.42 80
4 01/21/2023 18:00:38 -0.01,-128.14 -0.24,-127.22 105.23 80
5 01/23/2023 06:19:37 0.00,-128.21 -0.83,-131.80 410.37 80
6 01/24/2023 05:56:18 0.00,-128.21 0.34,-126.81 160.01 80
7 01/25/2023 18:15:06 0.00,-128.16 0.73,-131.35 363.79 80
8 01/26/2023 17:57:06 0.00,-128.17 -0.38,-126.35 206.72 80
9 01/28/2023 06:16:06 -0.00,-128.24 -0.62,-130.95 308.97 80
